This is the latest recevied weather packets stored in our database for station/object OK2JF-6. If no packets are shown the sender has not sent any weather packets the latest 10 day(s).
| Time | Temp. | Humidity | Pressure | Rain* | Wind** | Luminosity | Snow |
|---|---|---|---|---|---|---|---|
| 1777432818 | -1.11° C | 76% | 1094.5 hPa | 0 mm | - | 0 W/m² | - |
| 1777432743 | -1.11° C | 76% | 1094.5 hPa | 0 mm | - | 0 W/m² | - |
| 1777431843 | -1.67° C | 74% | 1094.4 hPa | 0 mm | - | 0 W/m² | - |
| 1777431664 | -1.67° C | 75% | 1094.6 hPa | 0 mm | - | 0 W/m² | - |
| 1777431183 | -1.67° C | 74% | 1094.3 hPa | 0 mm | - | 0 W/m² | - |
| 1777431123 | -1.67° C | 72% | 1094.4 hPa | 0 mm | - | 0 W/m² | - |
| 1777431063 | -1.67° C | 72% | 1094.6 hPa | 0 mm | - | 0 W/m² | - |
| 1777430763 | -1.11° C | 74% | 1094.4 hPa | 0 mm | - | 0 W/m² | - |
| 1777430523 | -1.11° C | 72% | 1094.4 hPa | 0 mm | - | 0 W/m² | - |
| 1777429924 | -1.11° C | 72% | 1094.3 hPa | 0 mm | - | 0 W/m² | - |
| 1777429563 | -1.11° C | 72% | 1094.4 hPa | 0 mm | - | 0 W/m² | - |
| 1777429383 | -0.56° C | 73% | 1094.4 hPa | 0 mm | - | 0 W/m² | - |
| 1777429203 | -0.56° C | 74% | 1094.3 hPa | 0 mm | - | 0 W/m² | - |
| 1777429143 | -0.56° C | 74% | 1094.3 hPa | 0 mm | - | 0 W/m² | - |
| 1777428543 | -0.56° C | 71% | 1094.1 hPa | 0 mm | - | 0 W/m² | - |
| 1777428423 | -0.56° C | 72% | 1094.1 hPa | 0 mm | - | 0 W/m² | - |
| 1777427299 | -0.56° C | 70% | 1094.3 hPa | 0 mm | - | 0 W/m² | - |
| 1777426503 | -0.56° C | 67% | 1094.1 hPa | 0 mm | - | 0 W/m² | - |
| 1777426338 | -0.56° C | 67% | 1094.4 hPa | 0 mm | - | 0 W/m² | - |
| 1777426143 | -0.56° C | 67% | 1094 hPa | 0 mm | - | 0 W/m² | - |
| 1777426083 | -0.56° C | 68% | 1094.3 hPa | 0 mm | - | 0 W/m² | - |
| 1777425063 | 0° C | 65% | 1094 hPa | 0 mm | - | 0 W/m² | - |
| 1777425003 | 0° C | 64% | 1094.1 hPa | 0 mm | - | 0 W/m² | - |
| 1777424883 | 0° C | 65% | 1094.3 hPa | 0 mm | - | 0 W/m² | - |
| 1777424643 | 0° C | 65% | 1093.9 hPa | 0 mm | - | 0 W/m² | - |
* Rain latest hour (hover to see other rain measurements)
** Current wind speed in m/s (hover to see current wind gust speed)